GOES 1 (SMS-C) 1 08366U 75100A 12035.79879798 -.00000233 00000-0 10000-3 0 8993 2 08366 014.0283 339.5134 0001352 007.0359 353.0174 01.00289208132601 GOES 2 1 10061U 77048A 12030.26382522 -.00000302 00000-0 10000-3 0 519 2 10061 014.6843 348.0767 0013941 283.1028 076.7669 00.99398656 71311 GOES 3 1 10953U 78062A 12035.89456801 -.00000108 00000-0 10000-3 0 7142 2 10953 014.5624 351.6884 0005152 042.0641 318.0156 01.00265467 76320 GOES 6 1 14050U 83041A 12035.86466571 -.00000263 00000-0 10000-3 0 2001 2 14050 014.3288 010.5283 0004013 032.4620 327.6067 01.00280062163462 GOES 7 1 17561U 87022A 12036.28743667 .00000097 00000-0 10000-3 0 3415 2 17561 013.6938 027.2314 0005501 055.7969 347.5049 01.00308471 74572 GOES 8 1 23051U 94022A 12036.03313194 -.00000040 00000-0 10000-3 0 84 2 23051 008.0288 060.7500 0005967 217.5026 142.5517 00.98903573 72241 GOES 9 1 23581U 95025A 12036.32234794 -.00000230 00000-0 10000-3 0 2854 2 23581 007.5733 058.9314 0005736 339.3094 020.7739 00.98803070 60940 GOES 10 1 24786U 97019A 12034.45460630 -.00000248 00000-0 10000-3 0 2173 2 24786 005.7939 062.0716 0007182 121.0553 239.0988 00.99101307 54052 GOES 11 1 26352U 00022A 12028.55393675 .00000012 00000-0 00000+0 0 6762 2 26352 000.9737 138.5801 0001710 342.5316 238.8776 00.99042364 42986 GOES 12 1 26871U 01031A 12037.27232494 -.00000286 00000-0 10000-3 0 4418 2 26871 001.9623 074.4414 0001669 279.3375 179.9191 01.00283904 38677 GOES 13 1 29155U 06018A 12037.16286782 -.00000251 00000-0 10000-3 0 9386 2 29155 000.4141 080.7904 0001882 316.9298 082.0487 01.00269720 20928 GOES 14 1 35491U 09033A 12036.52036844 -.00000086 00000-0 00000+0 0 3191 2 35491 000.0950 247.9196 0003231 191.5020 137.4959 01.00271836 9581 GOES 15 1 36411U 10008A 12037.40142603 .00000088 00000-0 00000+0 0 9273 2 36411 000.0310 256.8932 0000950 318.5862 289.9712 01.00262820 7098